Total_Precipitation_Accumulation
0.29 0.30 0.27 0.21 0.19 0.19 0.22 0.28 0.47 0.72 1.05 1.39 1.49 1.67 1.82 1.85 1.70 1.53 1.48 1.42 1.30 1.27 1.21 1.10 1.06 1.01 0.96 0.87 0.79 0.72 0.68 0.67 0.71 0.73 0.72 0.69 0.67 0.64 0.62 0.59 0.54 0.53 0.54 0.52
0.27 0.27 0.28 0.26 0.22 0.21 0.27 0.34 0.50 0.77 1.17 1.44 1.56 1.63 1.74 1.82 1.73 1.62 1.62 1.60 1.62 1.64 1.58 1.43 1.28 1.19 1.08 0.94 0.86 0.80 0.79 0.78 0.78 0.77 0.73 0.70 0.67 0.65 0.65 0.63 0.58 0.52 0.51 0.50
0.34 0.25 0.37 0.56 0.42 0.36 0.41 0.46 0.62 0.89 1.11 1.24 1.41 1.60 1.63 1.65 1.75 1.76 1.83 1.90 1.93 1.87 1.77 1.59 1.48 1.41 1.30 1.15 1.03 0.98 0.95 0.88 0.82 0.75 0.71 0.66 0.59 0.62 0.66 0.62 0.57 0.51 0.47 0.48
0.42 0.46 0.79 0.73 0.43 0.42 0.56 0.67 0.69 0.76 0.84 1.04 1.30 1.45 1.46 1.54 1.74 1.85 1.82 1.81 1.81 1.73 1.66 1.56 1.51 1.43 1.29 1.15 1.07 1.00 0.94 0.86 0.76 0.66 0.65 0.66 0.65 0.66 0.63 0.59 0.55 0.55 0.54 0.52
0.56 0.76 0.83 0.81 0.52 0.48 0.69 0.89 0.70 0.75 0.79 0.93 1.05 1.23 1.50 1.56 1.70 1.87 1.75 1.69 1.74 1.72 1.65 1.61 1.54 1.40 1.30 1.18 1.05 0.99 0.92 0.77 0.65 0.58 0.58 0.58 0.59 0.58 0.56 0.56 0.54 0.49 0.47 0.48
0.71 0.92 1.05 0.94 0.50 0.39 0.69 1.25 0.90 0.87 0.90 0.90 1.00 1.33 1.48 1.43 1.40 1.47 1.52 1.58 1.71 1.79 1.80 1.73 1.60 1.37 1.28 1.15 0.97 0.84 0.70 0.60 0.56 0.54 0.50 0.46 0.46 0.48 0.49 0.51 0.48 0.41 0.39 0.42
0.83 1.13 1.17 0.61 0.33 0.46 1.02 1.26 1.03 0.95 0.97 0.99 1.12 1.21 1.11 1.07 1.18 1.31 1.46 1.58 1.68 1.70 1.67 1.60 1.50 1.31 1.22 1.07 0.90 0.71 0.57 0.52 0.52 0.46 0.38 0.34 0.38 0.43 0.44 0.41 0.40 0.39 0.39 0.37
0.96 1.24 1.30 0.55 0.38 0.64 0.83 0.72 0.68 0.70 0.75 0.80 0.86 0.90 0.96 0.99 1.05 1.13 1.28 1.43 1.51 1.47 1.40 1.29 1.21 1.13 1.07 0.94 0.72 0.56 0.50 0.49 0.48 0.42 0.26 0.23 0.33 0.37 0.36 0.39 0.38 0.35 0.34 0.32
1.12 1.27 0.90 0.50 0.46 0.47 0.52 0.54 0.51 0.57 0.59 0.63 0.69 0.79 0.93 1.05 1.10 1.11 1.09 1.17 1.20 1.11 1.02 1.01 0.97 0.92 0.87 0.74 0.57 0.49 0.48 0.49 0.44 0.37 0.30 0.23 0.27 0.31 0.32 0.33 0.30 0.25 0.26 0.27
0.99 1.03 0.78 0.54 0.47 0.43 0.41 0.40 0.43 0.52 0.56 0.54 0.56 0.61 0.74 0.83 0.91 0.94 0.92 0.91 0.89 0.83 0.77 0.77 0.75 0.72 0.65 0.54 0.49 0.50 0.51 0.47 0.44 0.41 0.34 0.27 0.25 0.21 0.22 0.25 0.26 0.24 0.24 0.26
1.06 1.07 0.88 0.71 0.55 0.44 0.41 0.40 0.45 0.49 0.47 0.45 0.41 0.43 0.50 0.61 0.67 0.69 0.66 0.63 0.63 0.64 0.61 0.56 0.54 0.54 0.50 0.44 0.40 0.47 0.46 0.38 0.33 0.30 0.28 0.29 0.23 0.14 0.12 0.13 0.13 0.16 0.18 0.18
1.13 0.94 0.81 0.71 0.57 0.44 0.40 0.38 0.36 0.33 0.34 0.38 0.38 0.38 0.43 0.51 0.56 0.56 0.52 0.50 0.54 0.56 0.53 0.50 0.49 0.47 0.41 0.34 0.32 0.39 0.39 0.32 0.25 0.21 0.20 0.19 0.23 0.17 0.08 0.05 0.05 0.06 0.07 0.07
0.67 0.54 0.52 0.50 0.46 0.46 0.36 0.29 0.28 0.28 0.28 0.32 0.32 0.32 0.34 0.38 0.39 0.38 0.39 0.41 0.45 0.47 0.45 0.43 0.42 0.45 0.42 0.33 0.29 0.33 0.33 0.27 0.20 0.17 0.17 0.16 0.20 0.26 0.22 0.13 0.07 0.06 0.05 0.05
0.48 0.49 0.52 0.41 0.34 0.31 0.23 0.21 0.22 0.21 0.24 0.25 0.26 0.25 0.26 0.28 0.28 0.31 0.34 0.33 0.33 0.32 0.32 0.33 0.33 0.36 0.37 0.29 0.23 0.20 0.19 0.13 0.13 0.16 0.16 0.17 0.17 0.17 0.19 0.23 0.25 0.21 0.11 0.06
0.43 0.39 0.36 0.25 0.20 0.20 0.16 0.13 0.16 0.18 0.20 0.23 0.20 0.18 0.18 0.24 0.28 0.28 0.26 0.24 0.24 0.24 0.23 0.25 0.27 0.27 0.28 0.24 0.19 0.14 0.12 0.13 0.12 0.13 0.14 0.14 0.14 0.14 0.15 0.17 0.20 0.22 0.19 0.13
0.31 0.24 0.18 0.16 0.16 0.17 0.15 0.12 0.13 0.14 0.16 0.18 0.17 0.16 0.16 0.20 0.23 0.24 0.21 0.18 0.21 0.21 0.19 0.19 0.21 0.19 0.20 0.18 0.15 0.14 0.09 0.06 0.06 0.08 0.07 0.08 0.09 0.10 0.11 0.13 0.17 0.20 0.21 0.18
0.24 0.20 0.17 0.15 0.14 0.14 0.13 0.12 0.11 0.10 0.12 0.15 0.16 0.13 0.14 0.19 0.22 0.20 0.18 0.17 0.17 0.15 0.14 0.15 0.16 0.15 0.16 0.15 0.11 0.07 0.06 0.03 0.02 0.03 0.04 0.05 0.05 0.06 0.08 0.10 0.15 0.19 0.19 0.16
0.15 0.12 0.11 0.10 0.08 0.07 0.08 0.07 0.08 0.07 0.07 0.09 0.10 0.12 0.15 0.19 0.19 0.15 0.13 0.11 0.11 0.12 0.12 0.10 0.10 0.13 0.14 0.12 0.08 0.05 0.03 0.02 0.02 0.03 0.03 0.02 0.02 0.04 0.06 0.08 0.11 0.14 0.16 0.17
0.10 0.07 0.07 0.06 0.05 0.05 0.05 0.05 0.05 0.04 0.03 0.07 0.10 0.14 0.17 0.15 0.13 0.10 0.10 0.09 0.09 0.12 0.10 0.07 0.09 0.11 0.12 0.09 0.07 0.04 0.02 0.01 0.01 0.02 0.02 0.01 0.01 0.03 0.05 0.07 0.09 0.10 0.13 0.17
0.07 0.05 0.05 0.05 0.04 0.04 0.04 0.04 0.03 0.03 0.03 0.07 0.08 0.10 0.14 0.12 0.10 0.08 0.10 0.11 0.08 0.07 0.05 0.06 0.07 0.08 0.08 0.06 0.04 0.02 0.01 0.01 0.01 0.02 0.02 0.01 0.02 0.03 0.04 0.05 0.07 0.09 0.12 0.16
0.04 0.03 0.04 0.03 0.03 0.03 0.04 0.03 0.04 0.03 0.05 0.07 0.05 0.05 0.05 0.06 0.06 0.07 0.08 0.11 0.09 0.05 0.04 0.05 0.05 0.05 0.05 0.03 0.02 0.01 0.01 0.02 0.02 0.01 0.01 0.02 0.02 0.03 0.04 0.05 0.05 0.06 0.08 0.11
0.05 0.04 0.03 0.04 0.03 0.04 0.05 0.04 0.04 0.04 0.05 0.05 0.04 0.03 0.04 0.05 0.06 0.07 0.08 0.07 0.06 0.04 0.03 0.03 0.03 0.03 0.03 0.02 0.01 0.01 0.01 0.01 0.01 0.01 0.01 0.01 0.02 0.03 0.03 0.03 0.04 0.04 0.06 0.07
0.08 0.06 0.05 0.04 0.04 0.05 0.04 0.04 0.04 0.04 0.04 0.03 0.03 0.03 0.04 0.05 0.06 0.07 0.06 0.04 0.02 0.03 0.03 0.03 0.02 0.02 0.02 0.01 0.01 0.01 0.01 0.01 0.01 0.01 0.01 0.01 0.01 0.01 0.02 0.02 0.03 0.04 0.04 0.05
0.12 0.09 0.06 0.05 0.05 0.06 0.06 0.05 0.05 0.05 0.03 0.03 0.03 0.03 0.03 0.05 0.06 0.05 0.02 0.03 0.04 0.03 0.02 0.02 0.02 0.02 0.01 0.01 0.01 0.00 0.01 0.01 0.01 0.01 0.01 0.01 0.01 0.01 0.02 0.02 0.03 0.03 0.04 0.04
0.17 0.13 0.09 0.09 0.09 0.08 0.07 0.06 0.05 0.04 0.02 0.02 0.02 0.02 0.02 0.03 0.03 0.02 0.02 0.03 0.03 0.02 0.01 0.01 0.01 0.01 0.01 0.01 0.01 0.01 0.01 0.02 0.02 0.02 0.02 0.02 0.02 0.02 0.02 0.03 0.03 0.02 0.03 0.03
0.25 0.20 0.16 0.14 0.12 0.09 0.07 0.06 0.05 0.03 0.02 0.02 0.02 0.02 0.02 0.02 0.01 0.01 0.01 0.01 0.01 0.01 0.01 0.01 0.01 0.01 0.01 0.01 0.01 0.02 0.02 0.03 0.02 0.02 0.02 0.02 0.02 0.02 0.02 0.02 0.03 0.03 0.03 0.04
0.30 0.23 0.20 0.14 0.10 0.06 0.05 0.05 0.04 0.03 0.02 0.02 0.02 0.02 0.01 0.01 0.01 0.01 0.01 0.01 0.01 0.01 0.01 0.01 0.02 0.01 0.01 0.01 0.01 0.02 0.02 0.02 0.03 0.03 0.03 0.02 0.02 0.02 0.03 0.03 0.03 0.04 0.04 0.04